Regional Weather Roundup
Issued by NWS

Home | Current Version | Previous Version | Text Only | Print | Product List | Glossary Off
Versions: 1 2 3 4 5 6 7 8 9 10 11 12 13 14 15 16 17 18 19 20 21 22 23 24 25 26 27 28 29 30 31 32 33 34 35 36 37 38 39 40 41 42 43 44 45 46 47 48 49 50

000
ASUS43 KFSD 261710
RWRSD

WEATHER ROUNDUP FOR SOUTH DAKOTA
NATIONAL WEATHER SERVICE SIOUX FALLS SD
1200 PM CDT MON SEP 26 2016

NOTE: "FAIR" INDICATES FEW OR NO CLOUDS BELOW 12,000 FEET WITH NO
SIGNIFICANT WEATHER AND/OR OBSTRUCTIONS TO VISIBILITY.


SDZ001>005-009-010-012>017-261800-
NORTHWEST AND NORTH CENTRAL SOUTH DAKOTA

CITY           SKY/WX    TMP DP  RH WIND       PRES   REMARKS
BUFFALO          N/A     64  41  42 NW23      30.19R
MOBRIDGE       SUNNY     65  36  34 NW15      30.15F
$$

SDZ012>016-024>037-041>051-057-063-072>074-261800-
SOUTHWEST AND SOUTH CENTRAL SOUTH DAKOTA

CITY           SKY/WX    TMP DP  RH WIND       PRES   REMARKS
RAPID CTY ARPT SUNNY     69  41  36 N15       30.27F
PIERRE         SUNNY     64  41  42 W9        30.20S
CUSTER         SUNNY     61  37  41 W16G25    30.35F
ELLSWORTH AFB  SUNNY     68  41  37 NW13G24   30.26F
PHILIP         SUNNY     70  38  31 NW17      30.23F
PINE RIDGE     SUNNY     67  41  38 W10       30.30F
WINNER         FAIR      71  37  28 NW16      30.22S
$$

SDZ004>011-016>023-039-040-261800-
NORTHEAST SOUTH DAKOTA

CITY           SKY/WX    TMP DP  RH WIND       PRES   REMARKS
ABERDEEN       SUNNY     65  33  30 W18G24    30.12F
WATERTOWN      SUNNY     62  35  36 NW18G30   30.10F
BROOKINGS      SUNNY     62  33  33 NW23G32   30.11F
SISSETON         N/A     65  34  31 NW18G28   30.04F
$$

SDZ017-020-022-023-036>040-048>070-261800-
SOUTHEAST SOUTH DAKOTA

CITY           SKY/WX    TMP DP  RH WIND       PRES   REMARKS
SIOUX FALLS    SUNNY     64  40  41 W15G24    30.14F
HURON          SUNNY     67  34  29 NW17G24   30.15F
CHAMBERLAIN    SUNNY     67  42  39 W10       30.20F
MITCHELL       SUNNY     68  39  34 NW9       30.17F
YANKTON        SUNNY     66  43  42 W12       30.17F
$$

ABBREVIATIONS USED IN REMARKS
   TC - TEMPERATURE IN CELSIUS
  WCI - WIND CHILL INDEX
   HX - HEAT INDEX
  VSB - VISIBILITY





USA.gov is the U.S. government's official web portal to all federal, state and local government web resources and services.